Wind_Speed
29 28 28 27 27 26 24 24 25 24 23 22 22 22 21 20 20 19 18 17 16 16 15 15 14 13 12 11 11 10 9 9 9 8 7 7 6 6 7 7 8 8 9 10 11 12 13 13 14
31 30 30 30 29 27 24 24 25 25 24 24 24 23 22 20 20 19 19 18 17 17 16 16 15 14 13 12 11 11 10 9 9 8 8 8 7 7 7 8 9 10 10 11 12 13 14 14 15
33 33 32 32 30 27 25 26 27 27 27 26 25 24 22 21 20 20 20 19 18 17 17 16 16 14 13 12 12 11 11 10 9 9 8 8 8 8 8 9 9 10 11 12 13 14 14 15 15
35 35 35 34 30 27 28 28 28 29 28 27 26 25 23 22 21 21 21 20 20 19 17 17 16 15 14 13 12 12 11 10 10 9 9 8 8 8 8 8 9 10 11 12 13 14 14 15 16
38 38 38 36 31 29 29 29 29 30 29 29 28 26 25 24 22 22 21 21 21 20 19 18 17 16 15 14 13 13 12 11 11 10 9 9 8 8 8 9 10 10 11 13 14 14 15 16 17
41 41 40 37 33 32 31 30 31 30 30 30 29 27 26 25 23 22 22 22 22 21 20 19 18 17 16 15 14 14 13 12 11 11 10 9 9 9 9 9 10 11 12 13 14 15 16 17 18
43 43 41 39 37 35 32 32 32 31 31 30 30 29 27 26 25 24 24 23 23 22 21 20 19 18 16 15 15 14 13 12 11 11 10 10 9 9 10 11 11 12 13 14 15 16 17 18 19
45 45 43 41 39 36 34 35 34 33 32 32 31 29 28 27 26 25 24 24 23 22 21 20 19 18 17 16 15 14 13 13 12 12 11 11 10 10 11 11 12 13 14 15 16 17 18 19 20
49 48 45 41 39 37 37 37 36 35 34 33 32 30 29 28 27 25 24 24 23 23 22 21 20 19 18 17 16 15 14 13 13 12 12 11 11 11 12 13 13 14 15 16 17 18 18 20 21
51 50 44 41 40 40 40 40 38 38 36 34 33 31 30 29 27 26 25 25 24 23 23 22 21 20 19 17 17 16 15 14 14 13 12 12 12 12 13 13 14 15 16 17 17 18 19 21 22
52 50 46 44 43 43 43 42 41 40 37 35 34 32 31 30 29 27 26 25 25 24 23 22 21 20 19 18 18 17 16 15 14 14 13 13 13 13 13 14 15 16 16 17 18 19 21 22 22
53 50 48 47 46 45 45 45 43 42 39 37 35 34 33 32 30 29 28 27 26 25 24 23 22 21 20 19 18 18 17 16 15 14 14 14 14 14 14 15 15 16 17 18 19 20 21 22 23
54 52 50 49 49 48 47 47 45 44 41 39 37 35 34 33 32 31 30 29 27 26 25 24 23 22 21 20 19 18 18 17 16 15 15 15 15 14 14 15 16 16 17 18 20 21 22 23 24
54 54 53 52 50 49 49 48 48 45 43 41 39 37 36 34 34 33 31 30 28 27 26 25 24 23 22 21 20 19 19 18 17 16 16 16 15 15 15 16 17 18 19 19 21 22 23 24 25
55 56 56 54 52 50 50 51 49 45 45 43 41 39 38 36 35 34 33 31 30 29 28 27 26 24 23 22 21 20 20 19 18 18 17 17 16 16 16 17 18 19 20 21 22 23 24 25 25
55 57 57 55 54 51 52 51 48 47 47 46 43 41 40 38 36 35 34 33 32 31 30 28 27 26 25 24 23 22 22 21 20 19 18 18 17 17 18 18 19 20 21 22 23 24 24 25 26
55 57 57 55 55 54 54 52 49 48 49 48 46 44 42 40 38 37 36 35 34 33 32 30 29 28 27 26 25 24 23 23 22 21 20 19 19 19 20 20 20 21 22 23 24 25 25 26 27
54 54 55 55 54 55 55 53 50 50 50 50 48 46 44 42 39 38 37 36 36 35 34 33 31 30 29 28 27 26 25 24 24 23 22 21 21 21 21 21 22 22 23 24 25 25 26 27 28
52 53 53 53 53 55 56 56 53 52 52 52 51 49 46 44 41 40 39 38 37 36 35 34 33 32 31 29 29 28 27 27 26 25 24 23 23 23 23 23 23 24 25 25 26 26 27 28 29
51 53 53 52 52 54 56 58 57 56 54 52 51 51 48 46 44 42 41 40 39 37 36 35 34 33 32 31 31 30 29 29 28 27 26 25 25 24 25 25 25 26 26 27 27 28 29 29 30
50 51 51 51 51 54 57 59 59 58 56 54 52 51 50 48 46 44 42 41 40 38 37 36 35 34 34 33 33 32 31 30 29 28 27 27 26 26 26 27 27 27 27 28 29 29 30 30 31
49 49 50 51 51 52 56 60 60 58 57 56 53 52 50 49 47 46 44 42 41 39 38 37 36 35 35 35 34 33 32 31 30 30 29 29 29 28 28 28 28 29 29 30 30 31 31 31 32
46 47 48 50 51 53 55 60 62 59 58 56 54 51 50 50 49 47 46 44 42 40 39 39 38 36 36 35 34 34 33 33 32 32 31 31 30 30 30 29 30 30 31 31 31 32 32 32 33
46 46 48 49 50 55 55 57 62 59 57 55 54 52 50 49 49 48 47 45 43 42 41 40 39 38 37 36 35 34 34 34 33 33 33 32 32 31 31 31 31 32 32 32 32 33 33 33 34
46 47 47 49 51 54 54 57 60 56 55 54 54 53 52 50 49 49 48 47 45 43 42 41 40 39 37 37 36 35 34 34 34 34 34 33 33 33 32 32 32 33 33 33 34 34 34 35 35
44 46 48 48 50 51 53 57 58 53 52 53 53 53 53 52 51 50 49 48 47 45 44 42 41 40 39 38 37 36 35 35 35 35 35 34 34 34 34 33 34 34 34 34 35 35 35 36 36
44 45 46 47 48 49 51 54 56 53 51 51 52 52 52 52 51 50 48 48 47 46 45 43 42 41 40 39 38 37 37 37 36 36 36 35 34 34 35 35 35 35 35 35 36 35 36 36 36
43 42 44 47 48 49 50 52 54 52 50 49 50 51 51 51 51 50 49 48 47 47 45 45 44 43 41 40 39 38 38 38 38 37 37 36 36 36 36 36 36 36 36 36 36 36 36 36 36
44 44 44 45 47 47 49 51 50 50 49 48 48 49 50 50 50 50 50 49 48 48 47 46 45 44 43 42 41 40 39 39 39 38 38 37 37 37 36 36 36 37 37 37 37 36 36 36 37
42 44 44 45 46 47 47 47 46 47 47 47 46 46 48 48 49 49 49 48 48 48 47 46 46 45 43 42 41 41 40 40 40 40 39 39 38 38 37 37 37 37 37 38 37 36 36 37 37
Wind_Direction
242 240 237 235 234 232 230 229 229 230 230 229 228 228 226 224 223 225 224 224 224 225 227 227 226 227 230 233 237 240 246 251 256 261 266 271 275 279 283 290 295 300 304 308 310 312 314 315 316
242 240 237 235 234 232 230 229 229 229 229 228 227 227 225 224 223 224 224 223 223 224 226 226 227 228 230 233 235 238 243 246 251 258 263 267 271 275 280 286 292 298 302 306 309 312 314 315 315
242 240 238 235 233 231 230 231 229 227 227 227 226 226 225 224 222 222 222 222 223 224 224 225 226 228 230 232 232 236 240 242 248 256 258 263 266 271 278 287 292 298 303 306 309 311 313 314 315
241 240 238 236 232 230 230 230 230 229 227 226 227 226 224 224 222 222 222 221 222 223 222 222 225 228 228 229 230 235 237 242 249 254 256 259 263 271 280 289 295 300 303 304 307 310 312 312 313
239 239 238 236 231 229 230 230 230 229 228 227 227 226 225 224 222 222 222 222 222 222 222 222 224 226 227 228 230 233 237 244 248 249 251 256 264 273 282 290 295 299 302 305 308 310 311 312 313
238 238 238 235 231 229 230 230 231 230 229 228 228 226 225 224 223 222 223 222 221 221 221 222 224 225 226 228 229 230 236 241 243 244 249 254 263 273 280 287 293 297 301 306 309 310 310 312 313
239 238 237 233 230 228 228 229 230 230 229 228 228 226 224 223 223 222 223 223 222 222 221 221 222 223 225 225 226 230 234 236 239 242 247 254 263 271 278 285 290 296 301 305 307 308 310 312 313
237 237 235 232 230 228 228 229 229 230 229 227 227 225 223 222 221 221 221 222 222 221 221 219 220 222 223 224 226 230 231 234 238 242 247 254 263 271 278 285 290 296 301 304 306 308 310 311 313
236 236 233 231 230 228 227 229 229 229 228 227 227 225 223 222 220 219 220 220 220 220 220 219 220 222 223 225 227 229 231 234 238 243 249 255 264 272 278 285 291 295 300 303 306 308 311 313 314
235 235 233 231 230 227 227 227 228 228 228 227 227 225 223 222 219 218 218 217 217 218 218 218 219 222 224 226 228 229 232 234 239 244 250 257 266 273 279 286 291 295 299 302 305 308 311 314 315
235 234 232 229 228 227 226 226 227 228 228 227 227 225 223 221 218 217 216 215 216 216 216 217 219 222 225 227 229 230 232 235 239 244 250 258 267 274 281 287 292 296 299 303 306 309 312 314 315
234 233 232 229 227 227 226 226 226 227 228 227 226 224 222 220 218 217 216 215 216 216 216 217 220 223 225 228 230 231 232 235 239 245 252 260 268 275 284 289 294 297 300 304 307 309 312 314 316
233 231 231 229 228 226 225 225 225 225 226 227 226 225 223 220 219 218 217 217 217 217 217 218 221 224 226 228 230 231 233 235 240 247 254 260 267 275 283 289 293 297 301 304 307 310 312 314 315
232 231 230 229 228 226 226 224 224 223 225 226 227 226 224 221 219 219 218 218 218 218 218 220 222 224 226 229 231 232 234 237 244 250 255 260 266 273 281 287 292 297 301 304 307 309 310 312 313
231 231 229 228 227 226 227 225 223 223 224 225 226 225 225 223 221 220 220 220 220 220 220 221 223 225 227 229 232 233 235 239 245 251 255 260 266 273 279 287 292 296 299 303 305 307 309 310 312
231 230 229 227 227 226 227 226 223 223 224 225 225 225 225 225 223 222 221 221 221 222 222 222 224 226 227 230 232 234 236 240 245 251 255 261 267 273 279 286 291 294 298 301 303 305 307 309 311
230 230 229 227 227 227 228 226 223 224 225 224 224 225 225 225 224 223 223 223 223 224 224 225 226 227 228 231 234 235 237 241 247 252 256 261 267 273 279 285 289 293 297 300 302 304 306 308 310
230 230 229 228 227 228 228 226 224 225 225 224 224 224 225 226 225 225 225 224 225 225 225 227 228 229 230 233 236 237 238 243 247 251 256 261 267 273 278 283 287 292 295 298 301 303 305 306 308
231 230 229 228 228 229 228 226 224 224 224 224 224 224 224 225 226 226 225 225 225 226 227 228 230 231 233 234 236 238 240 244 247 251 256 261 267 272 277 281 285 290 294 296 299 302 303 305 307
230 230 228 227 228 229 229 227 225 224 224 224 224 224 224 225 226 226 226 226 226 226 228 229 231 233 234 236 237 239 241 244 248 252 257 261 266 271 276 280 284 288 292 295 297 300 302 304 305
229 229 228 228 229 230 229 228 225 225 225 224 223 224 224 225 226 227 227 227 227 228 229 231 232 234 236 237 238 240 243 245 248 253 257 260 264 270 275 279 283 286 290 293 295 298 300 302 303
229 228 229 229 230 230 230 231 225 225 225 225 224 224 225 225 226 227 228 228 228 229 231 232 233 235 237 238 240 242 245 247 249 252 255 259 264 269 274 278 281 285 288 291 294 296 298 300 301
228 227 229 230 231 232 231 234 226 225 225 224 225 225 226 226 227 228 229 230 230 230 231 232 233 235 237 239 241 243 246 248 250 252 255 259 264 268 273 277 281 284 287 289 292 294 296 298 299
226 227 228 229 232 234 230 234 230 225 225 224 225 226 227 228 228 228 229 230 230 231 231 233 234 235 238 240 242 244 247 249 251 253 255 259 263 267 271 276 279 283 286 288 290 292 295 296 297
224 225 227 228 231 234 231 234 231 225 226 225 225 227 228 228 228 228 229 229 230 231 232 233 235 236 238 240 243 245 247 250 252 254 256 259 262 266 270 274 278 282 285 287 289 291 293 294 295
224 225 227 230 233 234 233 234 231 227 226 226 227 227 228 228 228 229 229 229 230 231 233 234 235 237 239 241 243 245 247 250 252 254 256 259 262 266 269 272 276 280 283 286 288 290 292 293 294
224 226 228 231 234 236 235 234 232 229 227 227 227 227 228 229 229 230 230 230 231 232 233 235 236 238 240 241 243 245 247 250 252 254 256 258 261 265 269 272 275 278 281 285 287 289 291 292 294
226 227 228 230 232 236 236 234 232 230 230 229 228 228 228 229 230 231 232 231 232 233 234 235 236 238 240 242 244 245 247 249 252 254 256 259 262 265 268 272 275 278 281 283 285 287 289 291 293
227 226 228 232 234 237 238 235 232 232 231 230 229 228 228 229 230 231 232 232 232 233 233 235 236 238 240 243 245 247 248 250 251 253 256 258 261 265 268 271 274 277 280 282 284 286 288 290 293
229 228 230 232 233 235 237 236 232 233 232 231 229 228 228 228 228 229 230 231 232 233 233 235 236 238 240 242 245 247 249 250 252 253 255 258 261 264 267 270 274 276 279 282 283 285 288 290 293
Height
5827 5828 5830 5832 5834 5836 5838 5841 5841 5843 5845 5847 5849 5850 5853 5856 5858 5861 5861 5862 5863 5865 5866 5867 5869 5870 5871 5872 5873 5873 5874 5875 5875 5875 5875 5875 5875 5875 5875 5875 5875 5874 5873 5873 5872 5871 5870 5869 5867
5821 5823 5825 5827 5829 5831 5835 5836 5837 5839 5841 5843 5845 5847 5849 5852 5854 5856 5857 5858 5860 5862 5863 5865 5866 5868 5869 5870 5871 5872 5872 5873 5873 5874 5874 5874 5874 5874 5874 5873 5873 5872 5872 5871 5870 5869 5868 5867 5865
5815 5817 5819 5821 5823 5827 5831 5831 5832 5834 5836 5838 5840 5843 5845 5848 5850 5852 5854 5855 5858 5859 5861 5862 5864 5865 5866 5868 5869 5870 5870 5871 5872 5872 5872 5872 5872 5872 5872 5872 5871 5871 5870 5869 5868 5867 5866 5864 5863
5808 5810 5812 5815 5819 5823 5825 5826 5827 5829 5831 5833 5836 5839 5842 5844 5847 5848 5850 5852 5854 5856 5858 5859 5861 5862 5864 5865 5866 5867 5868 5869 5870 5870 5870 5871 5871 5870 5870 5870 5869 5868 5868 5867 5866 5864 5863 5862 5861
5800 5802 5805 5809 5814 5818 5819 5820 5822 5824 5827 5829 5832 5834 5837 5840 5843 5844 5846 5848 5850 5852 5854 5856 5858 5860 5861 5862 5864 5865 5866 5867 5867 5868 5868 5869 5869 5868 5868 5868 5867 5866 5866 5865 5863 5862 5861 5859 5858
5792 5794 5798 5802 5808 5811 5814 5815 5816 5819 5822 5825 5827 5830 5833 5836 5838 5841 5842 5844 5847 5849 5851 5853 5855 5857 5858 5860 5861 5862 5863 5864 5865 5866 5866 5866 5866 5866 5866 5866 5865 5864 5863 5862 5861 5860 5858 5857 5855
5784 5786 5790 5796 5800 5805 5808 5809 5811 5813 5816 5819 5822 5825 5828 5831 5834 5836 5838 5840 5843 5845 5847 5850 5852 5854 5855 5857 5858 5860 5861 5862 5863 5863 5864 5864 5864 5864 5864 5863 5863 5862 5861 5860 5858 5857 5855 5854 5852
5774 5777 5781 5787 5793 5799 5802 5802 5805 5807 5810 5813 5816 5820 5823 5826 5829 5832 5834 5836 5838 5841 5844 5846 5848 5850 5852 5854 5855 5857 5858 5859 5860 5861 5861 5862 5862 5862 5861 5861 5860 5859 5858 5857 5856 5854 5853 5851 5849
5762 5767 5772 5780 5786 5792 5794 5795 5798 5800 5803 5807 5811 5815 5818 5820 5824 5827 5830 5832 5835 5837 5840 5842 5845 5847 5849 5851 5853 5854 5855 5857 5858 5858 5859 5859 5859 5859 5859 5858 5857 5856 5855 5854 5853 5851 5849 5847 5845
5750 5756 5766 5774 5778 5782 5785 5788 5791 5793 5797 5801 5805 5809 5812 5815 5819 5822 5825 5828 5831 5833 5836 5839 5841 5844 5846 5848 5849 5851 5853 5854 5855 5856 5856 5856 5856 5856 5856 5855 5854 5853 5852 5851 5849 5848 5846 5844 5842
5741 5748 5758 5763 5767 5771 5775 5779 5783 5786 5791 5795 5799 5803 5806 5810 5814 5817 5821 5823 5826 5829 5832 5835 5837 5840 5842 5844 5846 5848 5849 5851 5852 5853 5853 5853 5853 5853 5853 5852 5851 5850 5849 5848 5846 5845 5843 5840 5838
5731 5739 5745 5752 5756 5760 5766 5770 5774 5779 5785 5788 5792 5796 5800 5804 5808 5812 5816 5819 5822 5825 5828 5831 5834 5836 5838 5840 5842 5844 5846 5847 5848 5849 5850 5850 5850 5850 5849 5849 5848 5847 5846 5844 5843 5841 5839 5837 5834
5719 5728 5734 5740 5745 5750 5755 5760 5765 5771 5777 5780 5784 5789 5794 5798 5802 5806 5810 5814 5817 5821 5824 5827 5829 5832 5834 5836 5838 5840 5842 5844 5845 5846 5846 5846 5846 5846 5846 5845 5844 5843 5842 5841 5839 5837 5835 5832 5830
5709 5715 5721 5727 5734 5740 5745 5751 5755 5763 5768 5773 5777 5782 5787 5791 5796 5800 5805 5809 5813 5816 5819 5822 5825 5828 5830 5832 5834 5836 5838 5840 5841 5842 5843 5843 5843 5842 5842 5842 5841 5839 5838 5837 5835 5833 5831 5828 5826
5696 5702 5708 5716 5723 5730 5734 5739 5748 5757 5759 5764 5770 5775 5780 5784 5789 5794 5799 5803 5807 5811 5814 5817 5820 5823 5826 5828 5830 5832 5834 5836 5837 5838 5838 5839 5839 5838 5838 5837 5837 5835 5834 5832 5831 5829 5826 5824 5821
5683 5689 5696 5708 5714 5720 5724 5730 5742 5746 5750 5756 5762 5767 5772 5777 5783 5788 5792 5797 5801 5805 5809 5812 5815 5818 5821 5823 5825 5827 5829 5831 5832 5833 5834 5834 5834 5834 5834 5833 5832 5831 5829 5828 5826 5824 5822 5819 5816
5670 5678 5687 5698 5703 5709 5712 5722 5732 5736 5741 5747 5753 5759 5764 5770 5775 5781 5785 5790 5794 5798 5802 5806 5810 5813 5816 5818 5820 5822 5824 5826 5828 5829 5829 5830 5830 5830 5829 5828 5827 5826 5825 5823 5821 5819 5816 5814 5811
5663 5670 5678 5686 5693 5697 5702 5711 5721 5725 5731 5737 5744 5750 5756 5762 5768 5773 5778 5782 5787 5791 5796 5800 5803 5807 5810 5812 5815 5817 5819 5821 5822 5823 5824 5824 5825 5825 5824 5823 5822 5821 5819 5818 5816 5814 5811 5808 5806
5652 5658 5665 5674 5681 5685 5691 5699 5708 5714 5719 5727 5734 5740 5747 5754 5760 5765 5770 5775 5779 5784 5789 5793 5797 5800 5804 5807 5809 5811 5813 5815 5816 5818 5819 5819 5819 5819 5819 5818 5817 5816 5814 5812 5810 5808 5806 5803 5800
5640 5646 5654 5663 5669 5673 5679 5686 5694 5701 5708 5716 5724 5731 5738 5745 5751 5756 5762 5767 5772 5777 5782 5786 5790 5794 5797 5800 5803 5805 5807 5809 5810 5812 5813 5813 5813 5813 5813 5812 5811 5810 5808 5806 5804 5802 5800 5797 5794
5630 5638 5646 5653 5658 5662 5667 5673 5681 5690 5698 5705 5713 5721 5728 5736 5742 5748 5754 5760 5765 5770 5774 5779 5783 5786 5790 5792 5795 5798 5800 5802 5804 5806 5807 5807 5807 5807 5807 5806 5805 5804 5802 5800 5798 5796 5794 5791 5788
5623 5631 5636 5641 5646 5650 5656 5660 5671 5680 5687 5695 5704 5712 5720 5727 5734 5740 5745 5751 5757 5762 5767 5771 5775 5779 5782 5785 5788 5791 5793 5796 5798 5799 5800 5800 5800 5801 5800 5799 5798 5797 5796 5794 5792 5790 5787 5784 5781
5615 5621 5625 5630 5634 5639 5644 5647 5659 5668 5676 5687 5696 5704 5712 5718 5725 5731 5737 5743 5749 5754 5758 5762 5766 5770 5774 5777 5781 5784 5786 5788 5790 5791 5792 5793 5793 5794 5793 5793 5792 5791 5789 5787 5785 5783 5780 5778 5775
5605 5610 5615 5619 5622 5625 5634 5637 5646 5659 5670 5680 5688 5695 5702 5709 5715 5722 5728 5733 5740 5745 5749 5754 5758 5762 5766 5770 5773 5776 5779 5780 5782 5784 5785 5786 5786 5786 5786 5786 5785 5783 5782 5780 5778 5776 5773 5771 5768
5595 5601 5605 5608 5610 5616 5626 5626 5636 5653 5663 5670 5678 5685 5692 5699 5705 5711 5717 5724 5730 5736 5741 5745 5750 5754 5758 5762 5765 5768 5770 5772 5774 5776 5777 5778 5779 5779 5778 5778 5777 5776 5775 5773 5771 5768 5766 5763 5760
5587 5591 5597 5601 5605 5611 5615 5617 5632 5645 5653 5660 5667 5674 5681 5688 5694 5701 5708 5714 5720 5726 5732 5737 5741 5745 5749 5753 5757 5760 5762 5764 5766 5768 5769 5770 5771 5771 5770 5770 5769 5768 5767 5765 5763 5761 5758 5755 5752
5577 5581 5589 5593 5596 5599 5603 5612 5622 5633 5642 5650 5657 5664 5671 5678 5685 5691 5698 5704 5710 5716 5722 5727 5732 5736 5740 5744 5747 5750 5753 5755 5758 5759 5760 5762 5762 5763 5762 5762 5761 5760 5759 5757 5755 5753 5750 5747 5744
5569 5574 5578 5581 5585 5589 5594 5603 5613 5624 5633 5640 5647 5654 5661 5668 5675 5681 5687 5693 5699 5706 5712 5717 5722 5726 5730 5734 5738 5741 5744 5746 5748 5750 5751 5753 5754 5754 5754 5753 5753 5751 5750 5748 5746 5744 5742 5739 5736
5561 5565 5568 5573 5577 5582 5586 5597 5608 5616 5624 5630 5637 5643 5650 5657 5664 5671 5677 5683 5689 5695 5700 5706 5711 5716 5720 5724 5728 5732 5735 5737 5739 5741 5743 5744 5745 5745 5745 5745 5744 5743 5741 5740 5738 5736 5733 5731 5728
5551 5556 5560 5565 5569 5574 5578 5590 5599 5605 5612 5618 5625 5632 5638 5645 5652 5659 5666 5672 5678 5684 5690 5696 5701 5706 5710 5714 5718 5722 5725 5727 5730 5732 5734 5735 5736 5736 5736 5736 5735 5734 5733 5731 5729 5727 5724 5722 5719